WE0DX-1 Weather Reports


Display with metric or nautical units.
time (UTC)temp
F
wind
direction
speed
MPH
gust
MPH
rain 1hr
in
rain 24hr
in
rain mn
in
humidity
%
barometer
mb
20260905131940 82 97 0.0 0.0 0.00 0.00 0.00 71 1014.2
20260905131436 81 96 0.0 0.0 0.00 0.00 0.00 71 1014.1
20260905130936 81 92 0.0 0.0 0.00 0.00 0.00 72 1014.0
20260905130435 81 103 0.0 0.0 0.00 0.00 0.00 72 1014.0
20260905125930 80 102 0.0 0.0 0.00 0.00 0.00 72 1013.9
20260905125425 80 90 0.0 0.0 0.00 0.00 0.00 75 1014.0
20260905124920 80 91 0.0 0.0 0.00 0.00 0.00 72 1013.9
20260905124417 80 95 0.0 0.0 0.00 0.00 0.00 72 1013.9
20260905123917 80 86 0.0 0.0 0.00 0.00 0.00 72 1013.6
20260905123413 80 94 0.0 0.0 0.00 0.00 0.00 71 1013.8
20260905122908 80 97 0.0 0.0 0.00 0.00 0.00 71 1013.5
20260905122408 80 98 0.0 0.0 0.00 0.00 0.00 72 1013.6
20260905121903 79 106 0.0 0.0 0.00 0.00 0.00 72 1013.6
20260905121359 79 98 0.0 0.0 0.00 0.00 0.00 72 1013.6
20260905120858 79 96 0.0 0.0 0.00 0.00 0.00 73 1013.6
20260905120357 78 94 0.0 0.0 0.00 0.00 0.00 74 1013.6
20260905115853 79 100 0.0 0.0 0.00 0.00 0.00 75 1013.7
20260905115352 78 89 0.0 0.0 0.00 0.00 0.00 75 1013.5
20260905114847 78 89 0.0 0.0 0.00 0.00 0.00 74 1013.6
20260905114346 78 99 0.0 0.0 0.00 0.00 0.00 74 1013.3
20260905113846 78 88 0.0 0.0 0.00 0.00 0.00 75 1013.1
20260905113341 78 120 0.0 0.0 0.00 0.00 0.00 75 1013.1
20260905112831 78 95 0.0 0.0 0.00 0.00 0.00 75 1013.0
20260905112325 78 95 0.0 0.0 0.00 0.00 0.00 75 1013.2
20260905111821 78 95 0.0 0.0 0.00 0.00 0.00 75 1013.1
20260905111315 78 95 0.0 0.0 0.00 0.00 0.00 74 1013.0
20260905110815 78 95 0.0 0.0 0.00 0.00 0.00 74 1013.1
20260905110314 78 95 0.0 0.0 0.00 0.00 0.00 74 1012.5
20260905105810 79 95 0.0 0.0 0.00 0.00 0.00 74 1012.9
20260905105308 79 95 0.0 0.0 0.00 0.00 0.00 74 1013.0
20260905104803 79 95 0.0 0.0 0.00 0.00 0.00 73 1012.8
20260905104300 79 95 0.0 0.0 0.00 0.00 0.00 73 1013.0
20260905103759 79 95 0.0 0.0 0.00 0.00 0.00 73 1012.8
20260905103254 80 95 0.0 0.0 0.00 0.00 0.00 72 1012.9
20260905102750 80 95 0.0 0.0 0.00 0.00 0.00 72 1012.8
20260905102247 80 95 0.0 0.0 0.00 0.00 0.00 71 1012.8
20260905101747 80 94 0.0 0.0 0.00 0.00 0.00 71 1012.9
20260905101245 80 97 0.0 0.0 0.00 0.00 0.00 71 1012.5
20260905100740 79 94 0.0 0.0 0.00 0.00 0.00 71 1012.8
20260905100236 79 93 0.0 0.0 0.00 0.00 0.00 72 1012.9
20260905095735 79 85 0.0 0.0 0.00 0.00 0.00 72 1012.8
20260905095235 79 85 0.0 0.0 0.00 0.00 0.00 72 1012.9
20260905094730 79 85 0.0 0.0 0.00 0.00 0.00 73 1012.9
20260905094225 79 85 0.0 0.0 0.00 0.00 0.00 72 1012.8
20260905093724 79 85 0.0 0.0 0.00 0.00 0.00 71 1012.8
20260905093220 79 85 0.0 0.0 0.00 0.00 0.00 71 1012.8
20260905092715 79 85 0.0 0.0 0.00 0.00 0.00 71 1012.9
20260905092211 80 85 0.0 0.0 0.00 0.00 0.00 71 1013.1
20260905091711 79 85 0.0 0.0 0.00 0.00 0.00 71 1013.0
20260905091206 80 85 0.0 0.0 0.00 0.00 0.00 71 1012.7
20260905090659 79 85 0.0 0.0 0.00 0.00 0.00 71 1012.9
20260905090156 79 85 0.0 0.0 0.00 0.00 0.00 72 1012.8
20260905085653 80 85 0.0 0.0 0.00 0.00 0.00 72 1013.0
20260905085149 80 85 0.0 0.0 0.00 0.00 0.00 71 1012.9
20260905084643 80 85 0.0 0.0 0.00 0.00 0.00 70 1013.0
20260905084138 80 85 0.0 0.0 0.00 0.00 0.00 69 1012.8
20260905083638 80 85 0.0 0.0 0.00 0.00 0.00 68 1012.7
20260905083134 81 85 0.0 0.0 0.00 0.00 0.00 68 1012.9
20260905082629 81 85 0.0 0.0 0.00 0.00 0.00 68 1012.8
20260905082126 81 85 0.0 0.0 0.00 0.00 0.00 68 1013.0
20260905081620 81 85 0.0 0.0 0.00 0.00 0.00 68 1012.8
20260905081114 81 85 0.0 0.0 0.00 0.00 0.00 68 1012.9
20260905080609 81 85 0.0 0.0 0.00 0.00 0.00 68 1012.9
20260905080109 81 85 0.0 0.0 0.00 0.00 0.00 69 1012.9
20260905075608 81 85 0.0 0.0 0.00 0.00 0.00 69 1012.8
20260905075102 81 85 0.0 0.0 0.00 0.00 0.00 69 1012.9
20260905074601 80 85 0.0 0.0 0.00 0.00 0.00 69 1012.8
20260905074057 80 85 0.0 0.0 0.00 0.00 0.00 70 1012.9
20260905073553 80 85 0.0 0.0 0.00 0.00 0.00 72 1013.1
20260905073048 80 85 0.0 0.0 0.00 0.00 0.00 71 1012.9
20260905072547 80 85 0.0 0.0 0.00 0.00 0.00 71 1012.8
20260905072043 80 85 0.0 0.0 0.00 0.00 0.00 71 1012.8
20260905071540 80 85 0.0 0.0 0.00 0.00 0.00 71 1012.7
20260905071040 80 85 0.0 0.0 0.00 0.00 0.00 70 1013.0
20260905070535 80 85 0.0 0.0 0.00 0.00 0.00 71 1012.7
20260905070032 80 85 0.0 0.0 0.00 0.00 0.00 71 1012.9
20260905065529 80 85 0.0 0.0 0.00 0.00 0.00 72 1013.1
20260905065025 80 85 0.0 0.0 0.00 0.00 0.00 71 1013.1
20260905064525 81 85 0.0 0.0 0.00 0.00 0.00 72 1013.1
20260905064020 82 85 0.0 0.0 0.00 0.00 0.00 70 1013.3
20260905063519 82 86 0.0 0.0 0.00 0.00 0.00 70 1013.4
20260905063016 82 96 0.0 0.0 0.00 0.00 0.00 68 1013.3
20260905062515 82 94 0.0 0.0 0.00 0.00 0.00 66 1013.3
20260905062010 83 87 0.0 0.0 0.00 0.00 0.00 67 1012.9
20260905061506 83 87 0.0 0.0 0.00 0.00 0.00 67 1013.2
20260905061004 84 87 0.0 0.0 0.00 0.00 0.00 66 1013.2
20260905060501 84 87 0.0 0.0 0.00 0.00 0.00 63 1013.1
20260905060000 84 87 0.0 0.0 0.00 0.00 0.00 64 1013.1
20260905055500 85 94 0.0 0.0 0.00 0.00 0.00 62 1013.3
20260905055000 85 95 0.0 0.0 0.00 0.00 0.00 62 1013.2
20260905054455 85 95 0.0 0.0 0.00 0.00 0.00 62 1012.9
20260905053950 85 97 0.0 0.0 0.00 0.00 0.00 61 1013.1
20260905053445 85 92 0.0 0.0 0.00 0.00 0.00 62 1012.8
20260905052941 85 113 0.0 0.0 0.00 0.00 0.00 62 1013.0
20260905052440 85 115 0.0 0.0 0.00 0.00 0.00 63 1013.0
20260905051940 85 99 0.0 0.0 0.00 0.00 0.00 63 1012.8
20260905051430 85 135 0.0 0.0 0.00 0.00 0.00 62 1012.9
20260905050928 85 101 0.0 0.0 0.00 0.00 0.00 63 1013.1
20260905050423 85 99 0.0 0.0 0.00 0.00 0.00 63 1013.1
20260905045919 85 98 0.0 0.0 0.00 0.00 0.00 63 1013.3
20260905045414 85 98 0.0 0.0 0.00 0.00 0.00 63 1013.2
20260905044909 85 95 0.0 0.0 0.00 0.00 0.00 63 1013.1
20260905044403 86 91 0.0 0.0 0.00 0.00 0.00 63 1013.2
20260905043902 86 90 0.0 0.0 0.00 0.00 0.00 63 1013.3
20260905043357 86 91 0.0 0.0 0.00 0.00 0.00 63 1013.0
20260905042857 86 89 0.0 0.0 0.00 0.00 0.00 62 1013.0
20260905042352 86 98 0.0 0.0 0.00 0.00 0.00 62 1013.0
20260905041846 87 113 0.0 0.0 0.00 0.00 0.00 62 1013.1
20260905041344 87 113 0.0 0.0 0.00 0.00 0.00 61 1013.0
20260905040843 87 99 0.0 0.0 0.00 0.00 0.00 61 1013.3
20260905040342 87 98 0.0 0.0 0.00 0.00 0.00 61 1013.0
20260905035842 87 104 0.0 0.0 0.00 0.00 0.00 61 1012.8
20260905035338 87 99 0.0 0.0 0.00 0.00 0.00 61 1013.2
20260905034834 86 101 0.0 0.0 0.00 0.00 0.00 62 1013.2
20260905034329 86 108 0.0 0.0 0.00 0.00 0.00 62 1013.1
20260905033828 86 95 0.0 0.0 0.00 0.00 0.00 62 1012.9
20260905033323 86 94 0.0 0.0 0.00 0.00 0.00 63 1013.1
20260905032823 86 92 0.0 0.0 0.00 0.00 0.00 62 1013.0
20260905032318 86 88 0.0 0.0 0.00 0.00 0.00 62 1013.1
20260905031813 86 89 0.0 0.0 0.00 0.00 0.00 62 1012.8
20260905031309 86 93 0.0 0.0 0.00 0.00 0.00 62 1012.9
20260905030804 87 104 0.0 0.0 0.00 0.00 0.00 62 1012.7
20260905030300 87 96 0.0 0.0 0.00 0.00 0.00 60 1012.7
20260905025754 87 89 0.0 0.0 0.00 0.00 0.00 60 1012.7
20260905025249 88 92 0.0 0.0 0.00 0.00 0.00 59 1012.8
20260905024745 88 89 0.0 0.0 0.00 0.00 0.00 58 1012.8
20260905024241 88 106 0.0 0.0 0.00 0.00 0.00 58 1012.9
20260905023741 88 100 0.0 0.0 0.00 0.00 0.00 58 1012.5
20260905023236 88 99 0.0 0.0 0.00 0.00 0.00 58 1012.5
20260905022735 88 90 0.0 0.0 0.00 0.00 0.00 58 1012.4
20260905022231 89 89 0.0 0.0 0.00 0.00 0.00 57 1012.5
20260905021725 89 92 0.0 0.0 0.00 0.00 0.00 56 1012.4
20260905021220 89 106 0.0 0.0 0.00 0.00 0.00 55 1012.2
20260905020715 89 130 0.0 0.0 0.00 0.00 0.00 56 1012.1
20260905020210 89 100 0.0 0.0 0.00 0.00 0.00 57 1012.2
20260905015708 88 106 0.0 0.0 0.00 0.00 0.00 57 1012.0
20260905015203 88 89 0.0 0.0 0.00 0.00 0.00 58 1012.2
20260905014701 88 89 0.0 0.0 0.00 0.00 0.00 59 1012.2
20260905014156 88 89 0.0 0.0 0.00 0.00 0.00 59 1012.0
20260905013653 88 89 0.0 0.0 0.00 0.00 0.00 60 1011.9
20260905013148 88 89 0.0 0.0 0.00 0.00 0.00 59 1011.9
20260905012644 88 89 0.0 0.0 0.00 0.00 0.00 58 1011.8
20260905012140 88 89 0.0 0.0 0.00 0.00 0.00 59 1011.7
20260905011636 88 89 0.0 0.0 0.00 0.00 0.00 58 1011.7
20260905011131 88 89 0.0 0.0 0.00 0.00 0.00 58 1011.8
20260905010626 89 89 0.0 0.0 0.00 0.00 0.00 59 1011.7
20260905010122 89 89 0.0 0.0 0.00 0.00 0.00 57 1011.7
20260905005618 90 89 0.0 0.0 0.00 0.00 0.00 56 1011.8
20260905005113 90 89 0.0 0.0 0.00 0.00 0.00 55 1011.7
20260905004608 91 89 0.0 0.0 0.00 0.00 0.00 54 1011.7
20260905004103 91 89 0.0 0.0 0.00 0.00 0.00 53 1011.6
20260905003559 92 89 0.0 0.0 0.00 0.00 0.00 53 1011.6
20260905003055 92 92 0.0 0.0 0.00 0.00 0.00 53 1011.6
20260905002549 92 140 0.0 0.0 0.00 0.00 0.00 52 1011.6
20260905002044 93 101 0.0 0.0 0.00 0.00 0.00 52 1011.7
20260905001538 93 104 0.0 0.0 0.00 0.00 0.00 52 1011.7
20260905001032 93 104 0.0 0.0 0.00 0.00 0.00 51 1011.7
20260905000528 94 99 0.0 0.0 0.00 0.00 0.00 51 1011.6
20260905000024 94 108 0.0 0.0 0.00 0.00 0.00 50 1011.6
20260904235518 94 101 0.0 0.0 0.00 0.00 0.00 49 1011.7
20260904235013 94 86 0.0 1.0 0.00 0.00 0.00 50 1011.6
20260904234512 94 116 0.0 0.0 0.00 0.00 0.00 50 1011.6
20260904234008 94 105 0.0 0.0 0.00 0.00 0.00 50 1011.8
20260904233503 95 112 0.0 0.0 0.00 0.00 0.00 49 1011.7
20260904232959 95 114 0.0 0.0 0.00 0.00 0.00 49 1011.8
20260904232456 95 98 0.0 0.0 0.00 0.00 0.00 50 1011.7
20260904231952 95 89 0.0 0.0 0.00 0.00 0.00 50 1011.9
20260904231447 95 129 0.0 2.0 0.00 0.00 0.00 49 1011.9
20260904230942 95 124 0.0 1.0 0.00 0.00 0.00 48 1012.0
20260904230441 95 150 1.0 1.0 0.00 0.00 0.00 49 1012.1
20260904225936 95 85 0.0 0.0 0.00 0.00 0.00 48 1011.9
20260904225434 96 122 0.0 1.0 0.00 0.00 0.00 49 1012.0
20260904224929 95 231 1.0 2.0 0.00 0.00 0.00 48 1011.9
20260904224425 96 148 0.0 1.0 0.00 0.00 0.00 47 1011.9
20260904223925 96 129 0.0 0.0 0.00 0.00 0.00 48 1011.8
20260904223424 96 97 0.0 1.0 0.00 0.00 0.00 48 1011.7
20260904222920 96 106 0.0 3.0 0.00 0.00 0.00 48 1011.9
20260904222414 96 117 0.0 0.0 0.00 0.00 0.00 48 1011.9
20260904221909 96 152 0.0 0.0 0.00 0.00 0.00 48 1011.8
20260904221404 96 134 1.0 2.0 0.00 0.00 0.00 48 1011.8
20260904220859 96 253 0.0 2.0 0.00 0.00 0.00 47 1011.9
20260904220358 96 101 0.0 0.0 0.00 0.00 0.00 47 1011.9
20260904215854 96 158 0.0 0.0 0.00 0.00 0.00 47 1011.7
20260904215349 96 90 3.0 6.0 0.00 0.00 0.00 47 1012.2
20260904214845 96 129 0.0 0.0 0.00 0.00 0.00 47 1012.2
20260904214340 96 117 0.0 0.0 0.00 0.00 0.00 48 1012.1
20260904213839 96 186 1.0 2.0 0.00 0.00 0.00 47 1012.0
20260904213333 96 210 2.0 3.0 0.00 0.00 0.00 46 1012.1
20260904212830 96 114 2.0 7.0 0.00 0.00 0.00 47 1012.3
20260904212329 96 136 4.0 10.0 0.00 0.00 0.00 47 1012.3
20260904211825 96 126 0.0 2.0 0.00 0.00 0.00 47 1012.2
20260904211319 96 195 0.0 0.0 0.00 0.00 0.00 47 1012.1
20260904210814 96 102 0.0 0.0 0.00 0.00 0.00 48 1012.1
20260904210314 96 88 6.0 9.0 0.00 0.00 0.00 47 1012.3
20260904205810 96 194 0.0 1.0 0.00 0.00 0.00 48 1012.3
20260904205306 96 136 1.0 3.0 0.00 0.00 0.00 47 1012.2
20260904204802 96 91 0.0 0.0 0.00 0.00 0.00 47 1012.3
20260904204258 96 152 0.0 5.0 0.00 0.00 0.00 48 1012.3
20260904203754 96 201 1.0 10.0 0.00 0.00 0.00 48 1012.2
20260904203250 96 115 0.0 2.0 0.00 0.00 0.00 48 1012.5
20260904202746 96 130 2.0 2.0 0.00 0.00 0.00 47 1012.7
20260904202237 96 138 0.0 0.0 0.00 0.00 0.00 48 1012.8
20260904201732 96 214 2.0 3.0 0.00 0.00 0.00 46 1012.7
20260904201231 96 104 0.0 0.0 0.00 0.00 0.00 47 1013.0
20260904200726 96 140 1.0 3.0 0.00 0.00 0.00 46 1012.7
20260904200221 96 91 0.0 7.0 0.00 0.00 0.00 47 1012.9
20260904195719 95 142 1.0 6.0 0.00 0.00 0.00 49 1013.1
20260904195213 96 109 2.0 5.0 0.00 0.00 0.00 46 1013.2
20260904194708 96 107 2.0 3.0 0.00 0.00 0.00 48 1013.1
20260904194207 96 216 0.0 1.0 0.00 0.00 0.00 48 1013.0
20260904193703 95 218 2.0 6.0 0.00 0.00 0.00 48 1013.1
20260904193159 95 122 0.0 3.0 0.00 0.00 0.00 47 1013.3
20260904192659 95 215 3.0 3.0 0.00 0.00 0.00 48 1013.2
20260904192148 95 121 0.0 0.0 0.00 0.00 0.00 49 1013.1
20260904191645 95 138 5.0 9.0 0.00 0.00 0.00 49 1013.3
20260904191141 95 160 1.0 5.0 0.00 0.00 0.00 49 1013.4
20260904190637 95 119 1.0 3.0 0.00 0.00 0.00 50 1013.4
20260904190133 95 209 2.0 3.0 0.00 0.00 0.00 50 1013.5
20260904185630 94 122 0.0 0.0 0.00 0.00 0.00 52 1013.3
20260904185124 94 159 6.0 7.0 0.00 0.00 0.00 50 1013.4
20260904184622 94 212 1.0 5.0 0.00 0.00 0.00 50 1013.3
20260904184118 93 248 1.0 5.0 0.00 0.00 0.00 52 1013.4
20260904183613 94 153 6.0 9.0 0.00 0.00 0.00 51 1013.5
20260904183109 94 112 0.0 2.0 0.00 0.00 0.00 51 1013.5
20260904182604 95 190 2.0 3.0 0.00 0.00 0.00 50 1013.7
20260904182104 94 278 1.0 5.0 0.00 0.00 0.00 53 1013.7
20260904181601 94 129 0.0 1.0 0.00 0.00 0.00 51 1013.7
20260904181100 94 91 0.0 3.0 0.00 0.00 0.00 51 1013.7
20260904180555 94 129 1.0 3.0 0.00 0.00 0.00 50 1013.8
20260904180050 94 139 1.0 2.0 0.00 0.00 0.00 51 1013.8
20260904175549 93 127 6.0 8.0 0.00 0.00 0.00 52 1013.6
20260904175048 93 239 2.0 2.0 0.00 0.00 0.00 52 1013.8
20260904174543 93 187 3.0 5.0 0.00 0.00 0.00 52 1013.9
20260904174040 93 112 0.0 1.0 0.00 0.00 0.00 53 1013.8
20260904173539 93 187 3.0 5.0 0.00 0.00 0.00 54 1013.9
20260904173035 92 204 1.0 2.0 0.00 0.00 0.00 54 1014.0
20260904172531 92 107 1.0 6.0 0.00 0.00 0.00 54 1013.8
20260904172030 93 190 3.0 5.0 0.00 0.00 0.00 54 1014.0
20260904171526 93 128 0.0 0.0 0.00 0.00 0.00 54 1014.2
20260904171021 92 159 3.0 9.0 0.00 0.00 0.00 54 1014.1
20260904170516 92 222 3.0 5.0 0.00 0.00 0.00 54 1014.3
20260904170013 92 102 7.0 10.0 0.00 0.00 0.00 55 1014.1
20260904165511 91 170 1.0 2.0 0.00 0.00 0.00 56 1014.4
20260904165011 91 83 1.0 6.0 0.00 0.00 0.00 57 1014.4
20260904164506 91 199 3.0 7.0 0.00 0.00 0.00 56 1014.4
20260904164002 91 135 1.0 5.0 0.00 0.00 0.00 58 1014.5
20260904163501 90 103 1.0 6.0 0.00 0.00 0.00 59 1014.3
20260904162955 91 191 4.0 9.0 0.00 0.00 0.00 58 1014.5
20260904162451 91 111 0.0 2.0 0.00 0.00 0.00 59 1014.3
20260904161946 90 161 1.0 3.0 0.00 0.00 0.00 60 1014.2
20260904161441 90 155 0.0 2.0 0.00 0.00 0.00 60 1014.3
20260904160937 89 172 2.0 5.0 0.00 0.00 0.00 60 1014.4
20260904160431 90 214 2.0 3.0 0.00 0.00 0.00 61 1014.4
20260904155927 89 110 1.0 3.0 0.00 0.00 0.00 62 1014.3
20260904155421 89 25 1.0 6.0 0.00 0.00 0.00 62 1014.3
20260904154920 89 230 1.0 2.0 0.00 0.00 0.00 61 1014.5
20260904154414 88 151 1.0 5.0 0.00 0.00 0.00 62 1014.5
20260904153910 89 141 3.0 3.0 0.00 0.00 0.00 61 1014.5
20260904153406 89 148 0.0 0.0 0.00 0.00 0.00 62 1014.5
20260904152902 88 227 2.0 3.0 0.00 0.00 0.00 63 1014.5
20260904152401 88 122 0.0 0.0 0.00 0.00 0.00 63 1014.5
20260904151856 87 109 0.0 0.0 0.00 0.00 0.00 64 1014.4
20260904151355 87 157 1.0 2.0 0.00 0.00 0.00 64 1014.6
20260904150851 86 113 1.0 3.0 0.00 0.00 0.00 64 1014.7
20260904150346 86 156 1.0 6.0 0.00 0.00 0.00 65 1014.4
20260904145844 87 132 0.0 0.0 0.00 0.00 0.00 63 1014.4
20260904145341 86 117 0.0 0.0 0.00 0.00 0.00 64 1014.4
20260904144836 86 151 0.0 0.0 0.00 0.00 0.00 66 1014.4
20260904144331 85 96 0.0 2.0 0.00 0.00 0.00 66 1014.5
20260904143827 85 104 2.0 3.0 0.00 0.00 0.00 67 1014.5
20260904143323 85 136 1.0 2.0 0.00 0.00 0.00 66 1014.2
20260904142820 85 100 0.0 0.0 0.00 0.00 0.00 68 1014.6
20260904142315 84 115 0.0 0.0 0.00 0.00 0.00 68 1014.2
20260904141810 84 135 3.0 3.0 0.00 0.00 0.00 68 1014.4
20260904141305 84 179 1.0 3.0 0.00 0.00 0.00 69 1014.4
20260904140801 84 111 0.0 0.0 0.00 0.00 0.00 70 1014.5
20260904140256 84 114 0.0 0.0 0.00 0.00 0.00 70 1014.6
20260904135754 83 117 0.0 0.0 0.00 0.00 0.00 71 1014.3
20260904135250 82 109 0.0 0.0 0.00 0.00 0.00 71 1014.4
20260904134746 82 106 0.0 0.0 0.00 0.00 0.00 72 1014.4
20260904134245 82 128 0.0 0.0 0.00 0.00 0.00 73 1014.6
20260904133740 82 125 0.0 0.0 0.00 0.00 0.00 74 1014.3
20260904133236 81 112 0.0 0.0 0.00 0.00 0.00 74 1014.4
20260904132736 81 96 0.0 0.0 0.00 0.00 0.00 74 1014.4
20260904132231 81 154 0.0 0.0 0.00 0.00 0.00 73 1014.2